Weather History for Valentine, NE

Change the Weather History Date:

Sunday, March 3, 2013

  Actual Average Record
Temperature  
Mean Temperature 48 °F 32 °F  
Max Temperature 63 °F 45 °F 74 °F (1992)
Min Temperature 32 °F 19 °F -22 °F (1960)
Degree Days  
Heating Degree Days 17 33  
Month to date heating degree days 74 100  
Since 1 July heating degree days 5027 5336  
Cooling Degree Days 0 0  
Month to date cooling degree days 0 0  
Year to date cooling degree days 0 0  
Moisture  
Dew Point 33 °F    
Average Humidity 63    
Maximum Humidity 96    
Minimum Humidity 30    
Precipitation  
Precipitation 0.00 in 0.02 in 0.56 in (1924)
Month to date precipitation 0.01 0.07  
Year to date precipitation 1.24 0.81  
Snow  
Snow 0.00 in 0.30 in 6.10 in (1989)
Month to date snowfall 0.3 0.7  
Since 1 July snowfall 27.9 22.8  
Snow Depth T in    
Sea Level Pressure  
Sea Level Pressure 29.69 in    
Wind  
Wind Speed 5 mph (SW)    
Max Wind Speed 16 mph    
Max Gust Speed 20 mph    
Visibility 9 miles    
Events      
T = Trace of Precipitation, MM = Missing Value Source: NWS Daily Summary

Daily Weather History Graph

Daily Weather History Graph

Search for Another Location

Airport:

Trip Planner

Search our weather history database for the weather conditions in past years. The results will help you decide how hot, cold, wet, or windy it might be!

Date:

Astronomy

Mar. 03, 2013 Rise Set
Actual Time 7:14 AM CST 6:34 PM CST
Civil Twilight 6:45 AM CST 7:02 PM CST
Nautical Twilight 6:13 AM CST 7:35 PM CST
Astronomical Twilight 5:40 AM CST 8:08 PM CST
Moon 12:24 AM CST (3/3) 10:21 AM CST (3/3)
Length of Visible Light 12h 16m
Length of Day
11h 20m
Waning Gibbous, 63% of the Moon is Illuminated
Mar 3
Waning Gibbous
Mar 4
Last Quarter
Mar 11
New
Mar 19
First Quarter
Mar 27
Full

Hourly Weather History & Observations

Time (CST) Temp. Windchill Dew Point Humidity Pressure Visibility Wind Dir Wind Speed Gust Speed Precip Events Conditions
12:52 AM 36.0 °F 32.1 °F 30.9 °F 82% 29.94 in 10.0 mi West 4.6 mph - N/A   Clear
1:52 AM 34.0 °F - 30.9 °F 89% 29.93 in 10.0 mi Calm Calm - N/A   Clear
2:52 AM 34.0 °F 31.0 °F 30.0 °F 85% 29.90 in 10.0 mi WSW 3.5 mph - N/A   Clear
3:52 AM 34.0 °F - 30.9 °F 89% 29.87 in 10.0 mi Calm Calm - N/A   Scattered Clouds
4:52 AM 34.0 °F 28.8 °F 30.9 °F 89% 29.85 in 10.0 mi SW 5.8 mph - N/A   Mostly Cloudy
5:52 AM 33.8 °F 29.6 °F 32.0 °F 93% 29.81 in 10.0 mi SSW 4.6 mph - N/A   Mostly Cloudy
6:52 AM 34.0 °F - 30.9 °F 89% 29.83 in 10.0 mi Calm Calm - N/A   Clear
7:52 AM 34.0 °F - 30.9 °F 89% 29.81 in 10.0 mi Calm Calm - N/A   Clear
8:52 AM 35.6 °F - 33.8 °F 93% 29.75 in 10.0 mi Calm Calm - N/A   Clear
9:52 AM 39.9 °F 37.8 °F 34.0 °F 79% 29.76 in 10.0 mi ENE 3.5 mph - N/A   Overcast
10:52 AM 46.9 °F - 36.0 °F 66% 29.72 in 10.0 mi East 4.6 mph - N/A   Clear
11:52 AM 57.9 °F - 33.1 °F 39% 29.67 in 10.0 mi South 11.5 mph 17.3 mph N/A   Clear
12:52 PM 59.0 °F - 32.0 °F 36% 29.62 in 10.0 mi SW 12.7 mph - N/A   Clear
1:52 PM 59.0 °F - 30.9 °F 35% 29.58 in 10.0 mi SW 9.2 mph - N/A   Clear
2:52 PM 57.9 °F - 32.0 °F 37% 29.56 in 10.0 mi SSW 8.1 mph - N/A   Clear
3:52 PM 63.0 °F - 30.9 °F 30% 29.54 in 10.0 mi WNW 8.1 mph - N/A   Clear
4:52 PM 60.1 °F - 30.9 °F 33% 29.53 in 10.0 mi WNW 5.8 mph - N/A   Clear
5:52 PM 57.0 °F - 32.0 °F 39% 29.54 in 10.0 mi Variable 4.6 mph - N/A   Partly Cloudy
6:52 PM 46.9 °F - 39.0 °F 74% 29.56 in 10.0 mi NE 5.8 mph - N/A   Mostly Cloudy
7:52 PM 41.0 °F 35.8 °F 37.0 °F 86% 29.58 in - ENE 8.1 mph - N/A   Partly Cloudy
8:52 PM 39.0 °F 34.0 °F 36.0 °F 89% 29.57 in 8.0 mi ENE 6.9 mph - N/A   Mostly Cloudy
9:52 PM 37.9 °F 35.5 °F 36.0 °F 93% 29.56 in 5.0 mi ESE 3.5 mph - N/A   Overcast
10:52 PM 37.0 °F - 35.1 °F 93% 29.56 in 5.0 mi Calm Calm - N/A   Overcast
11:52 PM 34.0 °F 31.0 °F 33.1 °F 96% 29.55 in 2.5 mi West 3.5 mph - N/A   Mostly Cloudy